DW5759 Weather Reports


Display with metric or nautical units.
time (UTC)temp
F
wind
direction
speed
MPH
gust
MPH
rain 1hr
in
rain 24hr
in
rain mn
in
humidity
%
barometer
mb
20260508234528 55 285 0.0 4.0 0.00 0.00 0.00 52 1010.7
20260508233013 56 285 0.0 0.0 0.00 0.00 0.00 44 1010.6
20260508231517 56 285 0.0 2.0 0.00 0.00 0.00 43 1010.4
20260508230007 57 290 0.0 1.0 0.00 0.00 0.00 42 1010.4
20260508224503 58 285 0.0 4.0 0.00 0.00 0.00 39 1010.0
20260508223010 58 293 0.0 3.0 0.00 0.00 0.00 40 1010.0
20260508221520 58 359 0.0 7.0 0.00 0.00 0.00 40 1010.1
20260508220017 58 275 1.0 8.0 0.00 0.00 0.00 39 1010.1
20260508214504 58 248 1.0 6.0 0.00 0.00 0.00 39 1010.2
20260508213007 58 358 1.0 8.0 0.00 0.00 0.00 41 1010.2
20260508211509 57 332 1.0 10.0 0.00 0.00 0.00 43 1010.4
20260508210017 57 302 2.0 7.0 0.00 0.00 0.00 45 1010.3
20260508204518 57 276 2.0 12.0 0.00 0.00 0.00 45 1010.3
20260508203025 57 338 2.0 10.0 0.00 0.00 0.00 45 1010.3
20260508201527 57 318 2.0 11.0 0.00 0.00 0.00 47 1010.2
20260508200005 57 314 3.0 11.0 0.00 0.00 0.00 47 1010.3
20260508194503 56 243 4.0 8.0 0.00 0.00 0.00 51 1010.4
20260508193006 55 312 5.0 13.0 0.00 0.00 0.00 52 1010.7
20260508191504 55 324 6.0 13.0 0.00 0.00 0.00 52 1010.7
20260508190004 55 7 3.0 10.0 0.00 0.00 0.00 55 1010.7
20260508184504 55 204 1.0 8.0 0.00 0.00 0.00 58 1010.9
20260508183005 53 338 1.0 6.0 0.00 0.00 0.00 59 1011.1
20260508181504 53 311 1.0 9.0 0.00 0.00 0.00 60 1011.2
20260508180004 53 360 4.0 10.0 0.00 0.00 0.00 58 1011.2
20260508174510 52 312 0.0 6.0 0.00 0.00 0.00 60 1011.2
20260508173010 53 314 0.0 4.0 0.00 0.00 0.00 59 1010.8
20260508171505 52 349 0.0 3.0 0.00 0.00 0.00 59 1010.9
20260508170003 52 13 0.0 2.0 0.00 0.00 0.00 60 1011.1
20260508164509 52 307 0.0 3.0 0.00 0.00 0.00 62 1011.1
20260508163024 51 286 0.0 0.0 0.00 0.00 0.00 63 1011.1
20260508161508 51 305 0.0 1.0 0.00 0.00 0.00 68 1011.4
20260508160006 51 290 0.0 3.0 0.00 0.00 0.00 64 1011.2
20260508154507 53 333 0.0 4.0 0.00 0.00 0.00 56 1011.1
20260508153016 53 289 0.0 4.0 0.00 0.00 0.00 55 1010.8
20260508151520 54 264 0.0 3.0 0.00 0.00 0.00 53 1010.6
20260508150007 55 283 0.0 6.0 0.00 0.00 0.00 51 1010.6
20260508144506 54 235 0.0 8.0 0.00 0.00 0.00 49 1010.5
20260508143006 54 302 0.0 5.0 0.00 0.00 0.00 47 1010.8
20260508141511 53 299 1.0 5.0 0.00 0.00 0.00 47 1010.8
20260508140013 53 295 1.0 8.0 0.00 0.00 0.00 50 1011.1
20260508134515 53 257 0.0 6.0 0.00 0.00 0.00 52 1011.0
20260508133003 52 2 0.0 5.0 0.00 0.00 0.00 53 1011.0
20260508131512 51 296 2.0 7.0 0.00 0.00 0.00 54 1011.1
20260508130013 50 315 0.0 5.0 0.00 0.00 0.00 57 1011.2
20260508124512 50 283 1.0 6.0 0.00 0.00 0.00 58 1011.2
20260508123012 49 299 2.0 8.0 0.00 0.00 0.00 64 1011.4
20260508121507 47 158 0.0 0.0 0.00 0.00 0.00 73 1011.7
20260508120012 45 160 0.0 0.0 0.00 0.00 0.00 77 1011.8
20260508114517 44 149 0.0 0.0 0.00 0.00 0.00 78 1011.7
20260508113017 43 166 0.0 0.0 0.00 0.00 0.00 80 1011.5
20260508111516 43 201 0.0 1.0 0.00 0.00 0.00 79 1011.3
20260508110006 43 151 0.0 0.0 0.00 0.00 0.00 78 1011.3
20260508104508 43 151 0.0 0.0 0.00 0.00 0.00 78 1011.3
20260508103011 43 155 0.0 0.0 0.00 0.00 0.00 78 1011.2
20260508101513 43 351 0.0 0.0 0.00 0.00 0.00 76 1010.9
20260508100006 42 343 0.0 0.0 0.00 0.00 0.00 76 1010.8
20260508094507 42 343 0.0 0.0 0.00 0.00 0.00 77 1010.4
20260508093027 42 343 0.0 0.0 0.00 0.00 0.00 77 1010.4
20260508091510 42 300 0.0 0.0 0.00 0.00 0.00 78 1010.3
20260508090011 42 295 0.0 0.0 0.00 0.00 0.00 77 1010.2
20260508084508 42 348 0.0 0.0 0.00 0.00 0.00 77 1010.3
20260508083012 43 348 0.0 0.0 0.00 0.00 0.00 75 1010.4
20260508081513 44 357 0.0 0.0 0.00 0.00 0.00 74 1010.2
20260508080010 45 357 0.0 0.0 0.00 0.00 0.00 73 1010.0
20260508074516 46 357 0.0 0.0 0.00 0.00 0.00 72 1010.0
20260508073008 46 357 0.0 0.0 0.00 0.00 0.00 69 1009.9
20260508071513 46 357 0.0 0.0 0.00 0.00 0.00 69 1009.9
20260508070012 46 357 0.0 0.0 0.00 0.00 0.00 67 1009.9
20260508064514 46 357 0.0 0.0 0.00 0.00 0.00 66 1010.0
20260508063013 46 357 0.0 0.0 0.00 0.00 0.00 68 1010.1
20260508061515 46 357 0.0 0.0 0.00 0.00 0.00 72 1009.9
20260508060015 46 357 0.0 0.0 0.00 0.00 0.00 72 1010.1
20260508054512 46 351 0.0 0.0 0.00 0.00 0.00 73 1009.8
20260508053016 46 351 0.0 0.0 0.00 0.00 0.00 72 1009.2
20260508051517 46 351 0.0 0.0 0.00 0.00 0.00 74 1008.6
20260508050010 46 350 0.0 0.0 0.00 0.00 0.00 75 1009.0
20260508044515 46 282 0.0 0.0 0.00 0.00 0.00 73 1009.3
20260508043016 45 282 0.0 0.0 0.00 0.00 0.00 74 1009.2
20260508041517 45 282 0.0 0.0 0.00 0.00 0.00 75 1009.4
20260508040018 45 282 0.0 0.0 0.00 0.00 0.00 74 1009.3
20260508034517 45 282 0.0 0.0 0.00 0.00 0.00 74 1009.3
20260508033025 46 282 0.0 0.0 0.00 0.00 0.00 74 1009.5
20260508031519 46 282 0.0 0.0 0.00 0.00 0.00 72 1009.5
20260508030020 46 282 0.0 0.0 0.00 0.00 0.00 71 1009.4
20260508024520 46 282 0.0 0.0 0.00 0.00 0.00 70 1009.5
20260508023027 46 282 0.0 0.0 0.00 0.00 0.00 67 1009.4
20260508021521 47 282 0.0 0.0 0.00 0.00 0.00 66 1009.5
20260508020021 47 282 0.0 0.0 0.00 0.00 0.00 65 1009.3
20260508014520 48 283 0.0 0.0 0.00 0.00 0.00 64 1009.3
20260508013020 48 285 0.0 0.0 0.00 0.00 0.00 62 1009.2
20260508011517 48 296 0.0 0.0 0.00 0.00 0.00 62 1009.0
20260508010036 49 297 0.0 0.0 0.00 0.00 0.00 60 1008.9
20260508004523 50 1 0.0 0.0 0.00 0.00 0.00 60 1008.5
20260508003022 51 1 0.0 0.0 0.00 0.00 0.00 57 1008.4
20260508001530 53 1 0.0 0.0 0.00 0.00 0.00 54 1008.1
20260508000020 55 1 0.0 3.0 0.00 0.00 0.00 47 1007.9